Time,TemperatureF,DewpointF,PressureIn,WindDirection,WindDirectionDegrees,WindSpeedMPH,WindSpeedGustMPH,Humidity,HourlyPrecipIn,Conditions,Clouds,dailyrainin,SoftwareType,DateUTC
2013-05-11 00:01:00,62.6,59.0,29.86,SW,225,1.3,6.3,88,0.00,,,0.33,WUHU216HW,2013-05-11 04:01:00,
2013-05-11 00:06:00,62.6,58.8,29.86,SSW,203,4.7,5.6,87,0.00,,,0.33,WUHU216HW,2013-05-11 04:06:00,
2013-05-11 00:11:00,62.6,58.8,29.86,SW,225,3.6,4.7,87,0.00,,,0.33,WUHU216HW,2013-05-11 04:11:00,
2013-05-11 00:16:00,62.6,58.8,29.85,SSW,203,1.6,3.6,87,0.00,,,0.33,WUHU216HW,2013-05-11 04:16:00,
2013-05-11 00:21:00,62.5,58.6,29.85,SSW,203,1.1,2.9,87,0.00,,,0.33,WUHU216HW,2013-05-11 04:21:00,
2013-05-11 00:26:00,62.5,58.6,29.85,SW,225,1.1,2.9,87,0.00,,,0.33,WUHU216HW,2013-05-11 04:26:00,
2013-05-11 00:31:00,62.5,58.6,29.85,WSW,248,0.2,2.9,87,0.00,,,0.33,WUHU216HW,2013-05-11 04:31:00,
2013-05-11 00:36:00,62.3,58.4,29.84,SSW,203,1.6,2.0,87,0.00,,,0.33,WUHU216HW,2013-05-11 04:36:00,
2013-05-11 00:41:00,62.3,58.7,29.84,SW,225,1.1,1.8,88,0.00,,,0.33,WUHU216HW,2013-05-11 04:41:00,
2013-05-11 00:46:00,62.3,58.4,29.84,SSW,203,1.1,2.5,87,0.00,,,0.33,WUHU216HW,2013-05-11 04:46:00,
2013-05-11 00:51:00,62.3,58.4,29.84,SW,225,3.4,3.4,87,0.00,,,0.33,WUHU216HW,2013-05-11 04:51:00,
2013-05-11 00:56:00,62.1,58.2,29.84,SW,225,0.4,3.4,87,0.00,,,0.33,WUHU216HW,2013-05-11 04:56:00,
2013-05-11 01:01:00,62.1,58.2,29.83,SSW,203,1.8,3.4,87,0.00,,,0.33,WUHU216HW,2013-05-11 05:01:00,
2013-05-11 01:06:00,62.1,58.2,29.83,SW,225,2.9,2.9,87,0.00,,,0.33,WUHU216HW,2013-05-11 05:06:00,
2013-05-11 01:11:00,62.1,58.2,29.83,SSW,203,0.4,3.1,87,0.00,,,0.33,WUHU216HW,2013-05-11 05:11:00,
2013-05-11 01:16:00,61.9,58.1,29.83,WSW,248,2.0,3.1,87,0.00,,,0.33,WUHU216HW,2013-05-11 05:16:00,
2013-05-11 01:21:00,61.9,58.1,29.83,SSW,203,0.4,2.0,87,0.00,,,0.33,WUHU216HW,2013-05-11 05:21:00,
2013-05-11 01:26:00,61.9,58.1,29.83,SSW,203,0.2,1.6,87,0.00,,,0.33,WUHU216HW,2013-05-11 05:26:00,
2013-05-11 01:31:00,61.9,58.1,29.83,SW,225,0.0,1.8,87,0.00,,,0.33,WUHU216HW,2013-05-11 05:31:00,
2013-05-11 01:36:00,62.1,58.2,29.82,SW,225,1.8,1.8,87,0.00,,,0.33,WUHU216HW,2013-05-11 05:36:00,
2013-05-11 01:41:00,61.9,58.1,29.82,SW,225,1.3,2.5,87,0.00,,,0.33,WUHU216HW,2013-05-11 05:41:00,
2013-05-11 01:46:00,61.9,58.1,29.82,WNW,293,0.0,2.5,87,0.00,,,0.33,WUHU216HW,2013-05-11 05:46:00,
2013-05-11 01:52:00,61.9,58.1,29.82,WSW,248,0.0,1.8,87,0.00,,,0.33,WUHU216HW,2013-05-11 05:52:00,
2013-05-11 01:57:00,61.9,58.1,29.82,WSW,248,0.0,1.8,87,0.00,,,0.33,WUHU216HW,2013-05-11 05:57:00,
2013-05-11 02:02:00,61.9,58.1,29.82,WSW,248,0.7,1.6,87,0.00,,,0.33,WUHU216HW,2013-05-11 06:02:00,
2013-05-11 02:07:00,61.9,58.4,29.82,SW,225,2.0,2.0,88,0.01,,,0.34,WUHU216HW,2013-05-11 06:07:00,
2013-05-11 02:12:00,61.9,58.1,29.82,SSW,203,1.1,2.2,87,0.01,,,0.34,WUHU216HW,2013-05-11 06:12:00,
2013-05-11 02:17:00,61.9,58.1,29.82,SW,225,0.4,2.2,87,0.01,,,0.34,WUHU216HW,2013-05-11 06:17:00,
2013-05-11 02:22:00,61.9,58.1,29.82,SW,225,1.1,1.8,87,0.01,,,0.34,WUHU216HW,2013-05-11 06:22:00,
2013-05-11 02:27:00,61.9,58.1,29.82,SSW,203,2.5,2.9,87,0.01,,,0.34,WUHU216HW,2013-05-11 06:27:00,
2013-05-11 02:32:00,61.9,58.4,29.82,WSW,248,1.1,4.0,88,0.01,,,0.34,WUHU216HW,2013-05-11 06:32:00,
2013-05-11 02:37:00,61.9,58.4,29.82,SW,225,0.2,4.0,88,0.01,,,0.34,WUHU216HW,2013-05-11 06:37:00,
2013-05-11 02:42:00,61.9,58.1,29.82,SSW,203,1.1,2.5,87,0.01,,,0.34,WUHU216HW,2013-05-11 06:42:00,
2013-05-11 02:47:00,61.9,58.4,29.82,SSW,203,3.4,3.4,88,0.01,,,0.34,WUHU216HW,2013-05-11 06:47:00,
2013-05-11 02:52:00,61.9,58.1,29.81,WSW,248,2.5,3.4,87,0.01,,,0.34,WUHU216HW,2013-05-11 06:52:00,
2013-05-11 02:57:00,61.9,58.1,29.81,SSW,203,2.5,3.1,87,0.01,,,0.34,WUHU216HW,2013-05-11 06:57:00,
2013-05-11 03:02:00,61.9,58.1,29.81,WSW,248,0.4,4.7,87,0.01,,,0.34,WUHU216HW,2013-05-11 07:02:00,
2013-05-11 03:07:00,61.7,58.2,29.81,SW,225,2.2,4.7,88,0.00,,,0.34,WUHU216HW,2013-05-11 07:07:00,
2013-05-11 03:12:00,61.7,57.9,29.81,SW,225,4.0,4.0,87,0.00,,,0.34,WUHU216HW,2013-05-11 07:12:00,
2013-05-11 03:17:00,61.7,58.2,29.81,South,180,3.8,4.3,88,0.00,,,0.34,WUHU216HW,2013-05-11 07:17:00,
2013-05-11 03:22:00,61.6,58.1,29.81,WNW,293,4.0,4.3,88,0.00,,,0.34,WUHU216HW,2013-05-11 07:22:00,
2013-05-11 03:27:00,61.6,58.1,29.81,SSW,203,1.8,4.0,88,0.00,,,0.34,WUHU216HW,2013-05-11 07:27:00,
2013-05-11 03:32:00,61.6,58.1,29.81,West,270,0.4,4.0,88,0.00,,,0.34,WUHU216HW,2013-05-11 07:32:00,
2013-05-11 03:37:00,61.6,58.1,29.81,SW,225,6.0,6.0,88,0.00,,,0.34,WUHU216HW,2013-05-11 07:37:00,
2013-05-11 03:42:00,61.6,58.1,29.80,SW,225,1.6,6.0,88,0.00,,,0.34,WUHU216HW,2013-05-11 07:42:00,
2013-05-11 03:47:00,61.6,58.1,29.80,SW,225,2.5,6.3,88,0.00,,,0.34,WUHU216HW,2013-05-11 07:47:00,
2013-05-11 03:52:00,61.4,57.9,29.80,WSW,248,1.6,6.3,88,0.00,,,0.34,WUHU216HW,2013-05-11 07:52:00,
2013-05-11 03:57:00,61.4,57.9,29.80,SSW,203,3.1,5.1,88,0.00,,,0.34,WUHU216HW,2013-05-11 07:57:00,
2013-05-11 04:02:00,61.4,57.9,29.80,South,180,2.7,5.4,88,0.00,,,0.34,WUHU216HW,2013-05-11 08:02:00,
2013-05-11 04:07:00,61.4,57.9,29.80,South,180,1.6,5.4,88,0.00,,,0.34,WUHU216HW,2013-05-11 08:07:00,
2013-05-11 04:12:00,61.4,57.9,29.80,South,180,1.3,3.8,88,0.00,,,0.34,WUHU216HW,2013-05-11 08:12:00,
2013-05-11 04:17:00,61.4,57.9,29.79,SSE,158,1.8,2.7,88,0.00,,,0.34,WUHU216HW,2013-05-11 08:17:00,
2013-05-11 04:22:00,61.4,57.5,29.79,SSE,158,1.1,1.8,87,0.00,,,0.34,WUHU216HW,2013-05-11 08:22:00,
2013-05-11 04:27:00,61.4,57.5,29.79,South,180,0.4,1.8,87,0.00,,,0.34,WUHU216HW,2013-05-11 08:27:00,
2013-05-11 04:32:00,61.4,57.5,29.79,SW,225,0.9,0.9,87,0.00,,,0.34,WUHU216HW,2013-05-11 08:32:00,
2013-05-11 04:37:00,61.2,57.3,29.79,SW,225,1.1,1.6,87,0.00,,,0.34,WUHU216HW,2013-05-11 08:37:00,
2013-05-11 04:42:00,61.2,57.3,29.79,SW,225,2.5,2.7,87,0.00,,,0.34,WUHU216HW,2013-05-11 08:42:00,
2013-05-11 04:47:00,61.0,57.2,29.79,SW,225,4.3,4.3,87,0.00,,,0.34,WUHU216HW,2013-05-11 08:47:00,
2013-05-11 04:52:00,60.8,57.3,29.79,WNW,293,0.4,4.3,88,0.00,,,0.34,WUHU216HW,2013-05-11 08:52:00,
2013-05-11 04:57:00,60.8,57.3,29.79,SW,225,2.7,4.5,88,0.00,,,0.34,WUHU216HW,2013-05-11 08:57:00,
2013-05-11 05:02:00,60.8,57.3,29.78,SSW,203,1.8,4.5,88,0.00,,,0.34,WUHU216HW,2013-05-11 09:02:00,
2013-05-11 05:07:00,60.8,57.3,29.78,SW,225,1.8,2.2,88,0.00,,,0.34,WUHU216HW,2013-05-11 09:07:00,
2013-05-11 05:12:00,60.8,57.3,29.78,SW,225,0.4,2.7,88,0.00,,,0.34,WUHU216HW,2013-05-11 09:12:00,
2013-05-11 05:17:00,60.8,57.3,29.78,WSW,248,0.7,2.7,88,0.00,,,0.34,WUHU216HW,2013-05-11 09:17:00,
2013-05-11 05:22:00,60.8,57.3,29.78,WNW,293,1.3,2.5,88,0.00,,,0.34,WUHU216HW,2013-05-11 09:22:00,
2013-05-11 05:27:00,60.8,57.6,29.77,SSE,158,2.2,2.7,89,0.00,,,0.34,WUHU216HW,2013-05-11 09:27:00,
2013-05-11 05:32:00,60.8,57.6,29.77,SSE,158,2.7,2.7,89,0.00,,,0.34,WUHU216HW,2013-05-11 09:32:00,
2013-05-11 05:37:00,60.8,57.3,29.78,South,180,2.7,4.3,88,0.00,,,0.34,WUHU216HW,2013-05-11 09:37:00,
2013-05-11 05:42:00,60.8,57.6,29.78,SW,225,2.0,4.3,89,0.00,,,0.34,WUHU216HW,2013-05-11 09:42:00,
2013-05-11 05:48:00,60.8,57.6,29.78,SW,225,1.1,4.3,89,0.00,,,0.34,WUHU216HW,2013-05-11 09:48:00,
2013-05-11 05:53:00,60.7,57.4,29.78,NW,315,0.4,3.6,89,0.00,,,0.34,WUHU216HW,2013-05-11 09:53:00,
2013-05-11 05:58:00,60.7,57.4,29.78,SW,225,0.4,3.4,89,0.00,,,0.34,WUHU216HW,2013-05-11 09:58:00,
2013-05-11 06:03:00,60.7,57.4,29.78,SSE,158,1.8,3.4,89,0.00,,,0.34,WUHU216HW,2013-05-11 10:03:00,
2013-05-11 06:08:00,60.7,57.4,29.78,WSW,248,3.6,3.6,89,0.00,,,0.34,WUHU216HW,2013-05-11 10:08:00,
2013-05-11 06:13:00,60.8,57.6,29.78,West,270,1.1,3.6,89,0.00,,,0.34,WUHU216HW,2013-05-11 10:13:00,
2013-05-11 06:18:00,60.7,57.4,29.78,SW,225,2.5,2.5,89,0.00,,,0.34,WUHU216HW,2013-05-11 10:18:00,
2013-05-11 06:23:00,60.8,57.6,29.79,WSW,248,1.8,2.5,89,0.00,,,0.34,WUHU216HW,2013-05-11 10:23:00,
2013-05-11 06:28:00,60.8,58.0,29.78,West,270,2.0,3.8,90,0.00,,,0.34,WUHU216HW,2013-05-11 10:28:00,
2013-05-11 06:33:00,60.8,57.6,29.79,WNW,293,0.9,4.5,89,0.00,,,0.34,WUHU216HW,2013-05-11 10:33:00,
2013-05-11 06:39:00,61.0,57.8,29.78,SSW,203,0.4,3.1,89,0.00,,,0.34,WUHU216HW,2013-05-11 10:39:00,
2013-05-11 06:44:00,61.0,57.8,29.78,WSW,248,3.1,3.1,89,0.00,,,0.34,WUHU216HW,2013-05-11 10:44:00,
2013-05-11 06:50:00,61.0,57.8,29.78,SW,225,0.0,3.1,89,0.00,,,0.34,WUHU216HW,2013-05-11 10:50:00,
2013-05-11 06:55:00,61.2,58.0,29.79,WSW,248,3.4,4.0,89,0.00,,,0.34,WUHU216HW,2013-05-11 10:55:00,
2013-05-11 07:00:00,61.2,58.0,29.79,SW,225,0.7,4.0,89,0.00,,,0.34,WUHU216HW,2013-05-11 11:00:00,
2013-05-11 07:05:00,61.2,58.0,29.78,SSW,203,0.7,3.4,89,0.00,,,0.34,WUHU216HW,2013-05-11 11:05:00,
2013-05-11 07:11:00,61.4,58.1,29.78,NW,315,1.6,2.5,89,0.00,,,0.34,WUHU216HW,2013-05-11 11:11:00,
2013-05-11 07:16:00,61.6,58.3,29.78,WSW,248,0.9,3.1,89,0.00,,,0.34,WUHU216HW,2013-05-11 11:16:00,
2013-05-11 07:21:00,61.6,58.3,29.78,SW,225,2.5,4.9,89,0.00,,,0.34,WUHU216HW,2013-05-11 11:21:00,
2013-05-11 07:26:00,61.7,58.5,29.78,SW,225,1.8,4.9,89,0.00,,,0.34,WUHU216HW,2013-05-11 11:26:00,
2013-05-11 07:31:00,61.9,58.7,29.77,SSE,158,0.0,3.1,89,0.00,,,0.34,WUHU216HW,2013-05-11 11:31:00,
2013-05-11 07:36:00,62.1,58.6,29.77,South,180,0.9,2.5,88,0.00,,,0.34,WUHU216HW,2013-05-11 11:36:00,
2013-05-11 07:41:00,62.1,58.6,29.77,SSE,158,0.0,0.9,88,0.00,,,0.34,WUHU216HW,2013-05-11 11:41:00,
2013-05-11 07:46:00,62.1,58.6,29.78,South,180,0.0,0.7,88,0.00,,,0.34,WUHU216HW,2013-05-11 11:46:00,
2013-05-11 07:51:00,62.3,58.7,29.77,South,180,0.0,0.4,88,0.00,,,0.34,WUHU216HW,2013-05-11 11:51:00,
2013-05-11 07:56:00,62.3,58.7,29.78,SSE,158,0.4,1.1,88,0.00,,,0.34,WUHU216HW,2013-05-11 11:56:00,
2013-05-11 08:01:00,62.5,58.6,29.78,SSE,158,1.1,1.1,87,0.00,,,0.34,WUHU216HW,2013-05-11 12:01:00,
2013-05-11 08:06:00,62.5,58.6,29.78,SSW,203,0.4,1.1,87,0.00,,,0.34,WUHU216HW,2013-05-11 12:06:00,
2013-05-11 08:11:00,62.6,58.8,29.78,SSW,203,0.4,1.1,87,0.00,,,0.34,WUHU216HW,2013-05-11 12:11:00,
2013-05-11 08:16:00,62.6,58.8,29.78,SW,225,2.2,3.6,87,0.00,,,0.34,WUHU216HW,2013-05-11 12:16:00,
2013-05-11 08:21:00,62.6,58.8,29.78,SSW,203,0.4,3.6,87,0.00,,,0.34,WUHU216HW,2013-05-11 12:21:00,
2013-05-11 08:26:00,63.0,59.1,29.78,SSW,203,2.5,2.5,87,0.00,,,0.34,WUHU216HW,2013-05-11 12:26:00,
2013-05-11 08:31:00,63.0,59.4,29.78,SW,225,0.2,2.7,88,0.00,,,0.34,WUHU216HW,2013-05-11 12:31:00,
2013-05-11 08:36:00,63.0,59.4,29.78,NNW,338,0.7,2.7,88,0.00,,,0.34,WUHU216HW,2013-05-11 12:36:00,
2013-05-11 08:41:00,63.0,59.4,29.78,SW,225,0.4,2.7,88,0.00,,,0.34,WUHU216HW,2013-05-11 12:41:00,
2013-05-11 08:46:00,63.0,59.1,29.78,WSW,248,2.2,2.7,87,0.00,,,0.34,WUHU216HW,2013-05-11 12:46:00,
2013-05-11 08:51:00,63.2,59.3,29.79,SSW,203,1.3,2.5,87,0.00,,,0.34,WUHU216HW,2013-05-11 12:51:00,
2013-05-11 08:56:00,63.2,59.3,29.78,SSW,203,0.9,2.5,87,0.00,,,0.34,WUHU216HW,2013-05-11 12:56:00,
2013-05-11 09:01:00,63.2,59.3,29.78,West,270,2.5,2.5,87,0.00,,,0.34,WUHU216HW,2013-05-11 13:01:00,
2013-05-11 09:06:00,63.4,59.5,29.78,WSW,248,1.1,2.5,87,0.00,,,0.34,WUHU216HW,2013-05-11 13:06:00,
2013-05-11 09:11:00,63.4,59.5,29.78,South,180,1.1,2.2,87,0.00,,,0.34,WUHU216HW,2013-05-11 13:11:00,
2013-05-11 09:16:00,63.7,59.9,29.78,South,180,3.1,3.1,87,0.00,,,0.34,WUHU216HW,2013-05-11 13:16:00,
2013-05-11 09:21:00,63.7,59.9,29.78,SW,225,0.0,3.1,87,0.00,,,0.34,WUHU216HW,2013-05-11 13:21:00,
2013-05-11 09:26:00,64.1,60.2,29.78,SSW,203,0.0,2.0,87,0.00,,,0.34,WUHU216HW,2013-05-11 13:26:00,
2013-05-11 09:31:00,64.1,60.2,29.78,WNW,293,0.4,1.3,87,0.00,,,0.34,WUHU216HW,2013-05-11 13:31:00,
2013-05-11 09:36:00,64.4,60.6,29.78,SW,225,1.8,3.8,87,0.00,,,0.34,WUHU216HW,2013-05-11 13:36:00,
2013-05-11 09:41:00,64.4,60.6,29.78,SE,135,0.4,3.8,87,0.00,,,0.34,WUHU216HW,2013-05-11 13:41:00,
2013-05-11 09:46:00,64.4,60.6,29.78,WNW,293,4.3,4.3,87,0.00,,,0.34,WUHU216HW,2013-05-11 13:46:00,
2013-05-11 09:51:00,64.4,60.6,29.78,West,270,1.3,4.3,87,0.00,,,0.34,WUHU216HW,2013-05-11 13:51:00,
2013-05-11 09:56:00,64.4,60.6,29.78,SSW,203,0.7,2.9,87,0.00,,,0.34,WUHU216HW,2013-05-11 13:56:00,
2013-05-11 10:01:00,64.4,60.6,29.78,WNW,293,0.0,2.9,87,0.00,,,0.34,WUHU216HW,2013-05-11 14:01:00,
2013-05-11 10:07:00,64.3,60.4,29.78,NNW,338,1.3,3.4,87,0.00,,,0.34,WUHU216HW,2013-05-11 14:07:00,
2013-05-11 10:12:00,64.3,60.4,29.78,SW,225,3.8,3.8,87,0.00,,,0.34,WUHU216HW,2013-05-11 14:12:00,
2013-05-11 10:17:00,64.3,60.4,29.78,WSW,248,1.1,4.0,87,0.00,,,0.34,WUHU216HW,2013-05-11 14:17:00,
2013-05-11 10:22:00,64.4,60.6,29.78,SSW,203,0.7,4.0,87,0.00,,,0.34,WUHU216HW,2013-05-11 14:22:00,
2013-05-11 10:27:00,64.4,60.6,29.78,West,270,1.1,3.1,87,0.00,,,0.34,WUHU216HW,2013-05-11 14:27:00,
2013-05-11 10:32:00,64.4,60.6,29.78,WSW,248,1.6,3.1,87,0.00,,,0.34,WUHU216HW,2013-05-11 14:32:00,
2013-05-11 10:37:00,64.4,60.6,29.78,WNW,293,1.8,2.2,87,0.00,,,0.34,WUHU216HW,2013-05-11 14:37:00,
2013-05-11 10:42:00,64.8,60.8,29.78,South,180,0.9,2.2,87,0.00,,,0.34,WUHU216HW,2013-05-11 14:42:00,
2013-05-11 10:47:00,65.2,61.2,29.77,SSW,203,1.8,2.5,87,0.00,,,0.34,WUHU216HW,2013-05-11 14:47:00,
2013-05-11 10:52:00,65.5,61.8,29.77,WNW,293,1.1,2.5,88,0.01,,,0.35,WUHU216HW,2013-05-11 14:52:00,
2013-05-11 10:57:00,65.9,62.2,29.77,North,0,2.2,2.9,88,0.01,,,0.35,WUHU216HW,2013-05-11 14:57:00,
2013-05-11 11:02:00,65.9,61.6,29.77,ENE,68,1.6,2.9,86,0.01,,,0.35,WUHU216HW,2013-05-11 15:02:00,
2013-05-11 11:07:00,66.1,62.0,29.77,SW,225,0.9,2.5,87,0.01,,,0.35,WUHU216HW,2013-05-11 15:07:00,
2013-05-11 11:12:00,66.1,62.0,29.77,West,270,0.7,3.4,87,0.01,,,0.35,WUHU216HW,2013-05-11 15:12:00,
2013-05-11 11:17:00,66.2,62.2,29.77,WNW,293,2.2,3.4,87,0.01,,,0.35,WUHU216HW,2013-05-11 15:17:00,
2013-05-11 11:22:00,66.2,62.2,29.77,West,270,3.1,3.1,87,0.01,,,0.35,WUHU216HW,2013-05-11 15:22:00,
2013-05-11 11:27:00,66.6,62.6,29.77,South,180,0.4,3.1,87,0.01,,,0.35,WUHU216HW,2013-05-11 15:27:00,
2013-05-11 11:32:00,67.0,62.9,29.77,West,270,2.2,2.2,87,0.01,,,0.35,WUHU216HW,2013-05-11 15:32:00,
2013-05-11 11:37:00,67.7,63.6,29.77,SW,225,2.2,6.5,87,0.01,,,0.35,WUHU216HW,2013-05-11 15:37:00,
2013-05-11 11:42:00,68.0,63.7,29.77,WSW,248,3.1,6.5,86,0.01,,,0.35,WUHU216HW,2013-05-11 15:42:00,
2013-05-11 11:47:00,68.8,64.4,29.77,West,270,1.8,5.1,86,0.00,,,0.35,WUHU216HW,2013-05-11 15:47:00,
2013-05-11 11:52:00,68.9,63.9,29.77,WSW,248,1.1,5.1,84,0.00,,,0.35,WUHU216HW,2013-05-11 15:52:00,
2013-05-11 11:57:00,69.1,63.7,29.76,SW,225,4.3,4.7,83,0.00,,,0.35,WUHU216HW,2013-05-11 15:57:00,
2013-05-11 12:02:00,69.7,64.3,29.76,SSE,158,4.5,4.7,83,0.00,,,0.35,WUHU216HW,2013-05-11 16:02:00,
2013-05-11 12:07:00,70.4,64.9,29.76,WSW,248,4.9,4.9,83,0.00,,,0.35,WUHU216HW,2013-05-11 16:07:00,
2013-05-11 12:12:00,70.7,64.3,29.76,SSW,203,1.6,4.9,80,0.00,,,0.35,WUHU216HW,2013-05-11 16:12:00,
2013-05-11 12:17:00,70.9,64.1,29.76,SW,225,1.1,5.1,79,0.00,,,0.35,WUHU216HW,2013-05-11 16:17:00,
2013-05-11 12:22:00,70.9,64.1,29.76,WSW,248,2.9,5.1,79,0.00,,,0.35,WUHU216HW,2013-05-11 16:22:00,
2013-05-11 12:27:00,71.1,63.1,29.76,West,270,1.6,6.7,76,0.00,,,0.35,WUHU216HW,2013-05-11 16:27:00,
2013-05-11 12:32:00,71.3,63.6,29.76,WNW,293,4.0,7.4,77,0.00,,,0.35,WUHU216HW,2013-05-11 16:32:00,
2013-05-11 12:37:00,71.3,64.1,29.76,NW,315,3.4,7.4,78,0.00,,,0.35,WUHU216HW,2013-05-11 16:37:00,
2013-05-11 12:42:00,72.2,65.4,29.75,SSW,203,4.7,8.5,79,0.00,,,0.35,WUHU216HW,2013-05-11 16:42:00,
2013-05-11 12:47:00,73.4,64.7,29.75,SW,225,6.9,11.0,74,0.00,,,0.35,WUHU216HW,2013-05-11 16:47:00,
2013-05-11 12:52:00,74.2,63.8,29.75,West,270,4.0,14.1,70,0.00,,,0.35,WUHU216HW,2013-05-11 16:52:00,
2013-05-11 12:57:00,74.9,64.1,29.74,SSW,203,7.8,14.1,69,0.00,,,0.35,WUHU216HW,2013-05-11 16:57:00,
2013-05-11 13:02:00,75.4,65.0,29.74,SSW,203,3.4,8.7,70,0.00,,,0.35,WUHU216HW,2013-05-11 17:02:00,
2013-05-11 13:07:00,75.8,64.4,29.74,SSW,203,6.3,6.7,68,0.00,,,0.35,WUHU216HW,2013-05-11 17:07:00,
2013-05-11 13:12:00,76.1,65.3,29.74,WSW,248,2.5,8.5,69,0.00,,,0.35,WUHU216HW,2013-05-11 17:12:00,
2013-05-11 13:17:00,76.1,63.1,29.74,NW,315,2.0,8.5,64,0.00,,,0.35,WUHU216HW,2013-05-11 17:17:00,
2013-05-11 13:22:00,76.3,63.2,29.74,SSW,203,9.2,9.2,64,0.00,,,0.35,WUHU216HW,2013-05-11 17:22:00,
2013-05-11 13:27:00,76.5,64.3,29.74,WSW,248,7.2,9.2,66,0.00,,,0.35,WUHU216HW,2013-05-11 17:27:00,
2013-05-11 13:32:00,76.7,65.3,29.73,SSW,203,2.5,8.9,68,0.00,,,0.35,WUHU216HW,2013-05-11 17:32:00,
2013-05-11 13:37:00,76.3,63.6,29.73,WSW,248,4.3,8.9,65,0.00,,,0.35,WUHU216HW,2013-05-11 17:37:00,
2013-05-11 13:42:00,76.0,63.7,29.73,NW,315,1.1,8.1,66,0.00,,,0.35,WUHU216HW,2013-05-11 17:42:00,
2013-05-11 13:47:00,75.6,64.3,29.73,SW,225,3.1,6.5,68,0.00,,,0.35,WUHU216HW,2013-05-11 17:47:00,
2013-05-11 13:52:00,75.2,63.6,29.73,WSW,248,6.3,8.9,67,0.00,,,0.35,WUHU216HW,2013-05-11 17:52:00,
2013-05-11 13:57:00,74.5,61.9,29.73,WSW,248,5.1,8.9,65,0.00,,,0.35,WUHU216HW,2013-05-11 17:57:00,
2013-05-11 14:02:00,74.3,63.1,29.73,SW,225,4.5,8.5,68,0.00,,,0.35,WUHU216HW,2013-05-11 18:02:00,
2013-05-11 14:07:00,74.0,62.8,29.73,SSE,158,0.4,4.9,68,0.00,,,0.35,WUHU216HW,2013-05-11 18:07:00,
2013-05-11 14:13:00,73.4,62.3,29.73,South,180,5.4,7.4,68,0.00,,,0.35,WUHU216HW,2013-05-11 18:13:00,
2013-05-11 14:18:00,73.8,63.6,29.73,South,180,1.3,7.4,70,0.00,,,0.35,WUHU216HW,2013-05-11 18:18:00,
2013-05-11 14:23:00,74.5,63.3,29.73,West,270,4.5,4.5,68,0.00,,,0.35,WUHU216HW,2013-05-11 18:23:00,
2013-05-11 14:28:00,75.4,63.7,29.73,SSW,203,2.7,9.8,67,0.00,,,0.35,WUHU216HW,2013-05-11 18:28:00,
2013-05-11 14:34:00,75.6,63.5,29.73,West,270,0.9,8.5,66,0.00,,,0.35,WUHU216HW,2013-05-11 18:34:00,
2013-05-11 14:39:00,75.6,63.8,29.72,WSW,248,2.9,3.8,67,0.00,,,0.35,WUHU216HW,2013-05-11 18:39:00,
2013-05-11 14:45:00,75.6,63.5,29.72,West,270,1.8,11.2,66,0.00,,,0.35,WUHU216HW,2013-05-11 18:45:00,
2013-05-11 14:50:00,76.0,62.5,29.73,WSW,248,3.1,11.2,63,0.00,,,0.35,WUHU216HW,2013-05-11 18:50:00,
2013-05-11 14:55:00,76.5,62.1,29.72,SW,225,3.4,12.8,61,0.00,,,0.35,WUHU216HW,2013-05-11 18:55:00,
2013-05-11 15:00:00,76.7,63.5,29.72,SW,225,6.5,12.8,64,0.00,,,0.35,WUHU216HW,2013-05-11 19:00:00,
2013-05-11 15:05:00,76.3,60.9,29.72,SW,225,3.4,6.9,59,0.00,,,0.35,WUHU216HW,2013-05-11 19:05:00,
2013-05-11 15:10:00,76.1,62.7,29.72,SSW,203,4.7,7.8,63,0.00,,,0.35,WUHU216HW,2013-05-11 19:10:00,
2013-05-11 15:15:00,76.3,60.9,29.71,South,180,1.3,7.8,59,0.00,,,0.35,WUHU216HW,2013-05-11 19:15:00,
2013-05-11 15:20:00,76.3,61.9,29.72,NNW,338,2.0,4.3,61,0.00,,,0.35,WUHU216HW,2013-05-11 19:20:00,
2013-05-11 15:25:00,76.3,60.5,29.72,NW,315,4.5,5.6,58,0.00,,,0.35,WUHU216HW,2013-05-11 19:25:00,
2013-05-11 15:30:00,75.8,60.5,29.71,NW,315,4.7,5.6,59,0.00,,,0.35,WUHU216HW,2013-05-11 19:30:00,
2013-05-11 15:35:00,74.5,59.2,29.72,North,0,6.0,6.0,59,0.00,,,0.35,WUHU216HW,2013-05-11 19:35:00,
2013-05-11 15:40:00,73.8,59.5,29.72,North,0,3.4,6.0,61,0.00,,,0.35,WUHU216HW,2013-05-11 19:40:00,
2013-05-11 15:45:00,72.7,60.7,29.72,NW,315,2.9,4.7,66,0.00,,,0.35,WUHU216HW,2013-05-11 19:45:00,
2013-05-11 15:50:00,71.8,59.9,29.72,WNW,293,1.3,2.9,66,0.00,,,0.35,WUHU216HW,2013-05-11 19:50:00,
2013-05-11 15:55:00,71.6,58.8,29.72,North,0,1.3,2.5,64,0.00,,,0.35,WUHU216HW,2013-05-11 19:55:00,
2013-05-11 16:00:00,71.8,59.9,29.72,West,270,1.6,3.6,66,0.00,,,0.35,WUHU216HW,2013-05-11 20:00:00,
2013-05-11 16:05:00,71.8,59.4,29.72,NE,45,1.8,3.6,65,0.00,,,0.35,WUHU216HW,2013-05-11 20:05:00,
2013-05-11 16:10:00,72.2,59.3,29.72,SE,135,0.7,3.4,64,0.00,,,0.35,WUHU216HW,2013-05-11 20:10:00,
2013-05-11 16:15:00,72.0,57.8,29.72,NNW,338,1.8,3.4,61,0.00,,,0.35,WUHU216HW,2013-05-11 20:15:00,
2013-05-11 16:20:00,72.0,59.1,29.71,ENE,68,1.8,3.4,64,0.00,,,0.35,WUHU216HW,2013-05-11 20:20:00,
2013-05-11 16:25:00,72.0,58.7,29.71,NE,45,1.3,3.4,63,0.00,,,0.35,WUHU216HW,2013-05-11 20:25:00,
2013-05-11 16:30:00,72.5,57.3,29.71,NW,315,2.5,2.5,59,0.00,,,0.35,WUHU216HW,2013-05-11 20:30:00,
2013-05-11 16:36:00,72.7,59.0,29.71,NW,315,1.1,2.5,62,0.00,,,0.35,WUHU216HW,2013-05-11 20:36:00,
2013-05-11 16:41:00,73.1,59.2,29.71,SSE,158,2.5,2.5,62,0.00,,,0.35,WUHU216HW,2013-05-11 20:41:00,
2013-05-11 16:46:00,73.4,60.0,29.72,WSW,248,0.9,3.4,63,0.00,,,0.35,WUHU216HW,2013-05-11 20:46:00,
2013-05-11 16:51:00,73.6,59.3,29.71,North,0,0.9,5.4,61,0.00,,,0.35,WUHU216HW,2013-05-11 20:51:00,
2013-05-11 16:56:00,73.6,59.3,29.71,ENE,68,0.4,5.4,61,0.00,,,0.35,WUHU216HW,2013-05-11 20:56:00,
2013-05-11 17:01:00,73.8,57.5,29.71,North,0,4.7,4.7,57,0.00,,,0.35,WUHU216HW,2013-05-11 21:01:00,
2013-05-11 17:06:00,73.8,59.0,29.71,North,0,1.8,4.7,60,0.00,,,0.35,WUHU216HW,2013-05-11 21:06:00,
2013-05-11 17:11:00,74.0,58.7,29.71,SW,225,1.8,6.3,59,0.00,,,0.35,WUHU216HW,2013-05-11 21:11:00,
2013-05-11 17:16:00,74.2,57.9,29.72,SE,135,7.6,7.6,57,0.00,,,0.35,WUHU216HW,2013-05-11 21:16:00,
2013-05-11 17:21:00,74.2,56.9,29.71,NW,315,2.0,7.6,55,0.00,,,0.35,WUHU216HW,2013-05-11 21:21:00,
2013-05-11 17:26:00,74.3,57.6,29.72,SSW,203,4.3,5.4,56,0.00,,,0.35,WUHU216HW,2013-05-11 21:26:00,
2013-05-11 17:31:00,74.3,58.6,29.71,SSW,203,2.0,4.7,58,0.00,,,0.35,WUHU216HW,2013-05-11 21:31:00,
2013-05-11 17:36:00,74.3,59.0,29.71,WNW,293,2.5,4.5,59,0.00,,,0.35,WUHU216HW,2013-05-11 21:36:00,
2013-05-11 17:41:00,74.2,57.9,29.71,North,0,1.1,4.5,57,0.00,,,0.35,WUHU216HW,2013-05-11 21:41:00,
2013-05-11 17:46:00,74.0,57.7,29.71,WNW,293,0.9,2.5,57,0.00,,,0.35,WUHU216HW,2013-05-11 21:46:00,
2013-05-11 17:51:00,74.0,58.2,29.72,North,0,0.2,2.0,58,0.00,,,0.35,WUHU216HW,2013-05-11 21:51:00,
2013-05-11 17:56:00,74.2,59.4,29.71,East,90,2.2,2.2,60,0.00,,,0.35,WUHU216HW,2013-05-11 21:56:00,
2013-05-11 18:01:00,74.0,58.7,29.72,SSW,203,2.2,3.4,59,0.00,,,0.35,WUHU216HW,2013-05-11 22:01:00,
2013-05-11 18:06:00,73.8,58.5,29.71,SSW,203,2.2,3.4,59,0.00,,,0.35,WUHU216HW,2013-05-11 22:06:00,
2013-05-11 18:11:00,73.6,57.3,29.71,ESE,113,1.8,3.8,57,0.00,,,0.35,WUHU216HW,2013-05-11 22:11:00,
2013-05-11 18:16:00,73.4,57.7,29.71,West,270,0.4,3.8,58,0.00,,,0.35,WUHU216HW,2013-05-11 22:16:00,
2013-05-11 18:21:00,73.3,58.5,29.72,West,270,1.8,3.1,60,0.00,,,0.35,WUHU216HW,2013-05-11 22:21:00,
2013-05-11 18:26:00,73.1,58.3,29.71,SSW,203,1.8,3.8,60,0.00,,,0.35,WUHU216HW,2013-05-11 22:26:00,
2013-05-11 18:31:00,73.1,58.3,29.71,West,270,1.8,3.8,60,0.00,,,0.35,WUHU216HW,2013-05-11 22:31:00,
2013-05-11 18:36:00,72.7,57.5,29.72,East,90,0.2,3.6,59,0.00,,,0.35,WUHU216HW,2013-05-11 22:36:00,
2013-05-11 18:41:00,72.4,58.1,29.72,West,270,0.0,3.6,61,0.00,,,0.35,WUHU216HW,2013-05-11 22:41:00,
2013-05-11 18:46:00,72.0,55.4,29.72,North,0,0.4,2.2,56,0.00,,,0.35,WUHU216HW,2013-05-11 22:46:00,
2013-05-11 18:51:00,71.8,55.7,29.72,WSW,248,0.4,2.0,57,0.00,,,0.35,WUHU216HW,2013-05-11 22:51:00,
2013-05-11 18:56:00,71.6,56.1,29.72,NE,45,0.4,1.8,58,0.00,,,0.35,WUHU216HW,2013-05-11 22:56:00,
2013-05-11 19:01:00,71.3,56.3,29.72,WSW,248,0.4,1.8,59,0.00,,,0.35,WUHU216HW,2013-05-11 23:01:00,
2013-05-11 19:06:00,70.9,56.4,29.72,WSW,248,0.7,2.0,60,0.00,,,0.35,WUHU216HW,2013-05-11 23:06:00,
2013-05-11 19:11:00,70.6,56.1,29.73,WSW,248,1.1,2.0,60,0.00,,,0.35,WUHU216HW,2013-05-11 23:11:00,
2013-05-11 19:16:00,70.4,56.3,29.73,WNW,293,2.5,2.5,61,0.00,,,0.35,WUHU216HW,2013-05-11 23:16:00,
2013-05-11 19:21:00,70.0,56.0,29.73,NNW,338,2.5,2.5,61,0.00,,,0.35,WUHU216HW,2013-05-11 23:21:00,
2013-05-11 19:26:00,69.8,55.9,29.73,NNE,23,1.3,4.9,61,0.00,,,0.35,WUHU216HW,2013-05-11 23:26:00,
2013-05-11 19:31:00,69.8,56.3,29.73,NW,315,0.2,4.9,62,0.00,,,0.35,WUHU216HW,2013-05-11 23:31:00,
2013-05-11 19:36:00,69.7,56.1,29.73,North,0,0.0,1.8,62,0.00,,,0.35,WUHU216HW,2013-05-11 23:36:00,
2013-05-11 19:41:00,69.5,55.9,29.73,North,0,0.0,1.8,62,0.00,,,0.35,WUHU216HW,2013-05-11 23:41:00,
2013-05-11 19:46:00,69.5,56.4,29.73,NNW,338,0.0,0.7,63,0.00,,,0.35,WUHU216HW,2013-05-11 23:46:00,
2013-05-11 19:51:00,69.3,56.6,29.74,SSW,203,1.3,1.3,64,0.00,,,0.35,WUHU216HW,2013-05-11 23:51:00,
2013-05-11 19:56:00,69.1,56.4,29.73,East,90,0.4,1.3,64,0.00,,,0.35,WUHU216HW,2013-05-11 23:56:00,
2013-05-11 20:01:00,68.8,55.2,29.74,North,0,0.9,1.1,62,0.00,,,0.00,WUHU216HW,2013-05-12 00:01:00,
2013-05-11 20:06:00,68.8,55.2,29.74,NW,315,0.4,1.3,62,0.00,,,0.00,WUHU216HW,2013-05-12 00:06:00,
2013-05-11 20:11:00,68.8,54.8,29.74,North,0,1.3,1.6,61,0.00,,,0.00,WUHU216HW,2013-05-12 00:11:00,
2013-05-11 20:16:00,68.8,54.8,29.74,North,0,0.7,1.6,61,0.00,,,0.00,WUHU216HW,2013-05-12 00:16:00,
2013-05-11 20:21:00,68.6,55.0,29.74,North,0,1.6,1.6,62,0.00,,,0.00,WUHU216HW,2013-05-12 00:21:00,
2013-05-11 20:26:00,68.4,54.9,29.74,North,0,1.1,1.6,62,0.00,,,0.00,WUHU216HW,2013-05-12 00:26:00,
2013-05-11 20:31:00,68.2,54.7,29.74,NNW,338,0.2,1.3,62,0.00,,,0.00,WUHU216HW,2013-05-12 00:31:00,
2013-05-11 20:36:00,68.0,54.1,29.74,NNW,338,0.4,1.3,61,0.00,,,0.00,WUHU216HW,2013-05-12 00:36:00,
2013-05-11 20:41:00,68.0,54.1,29.74,North,0,0.4,1.8,61,0.00,,,0.00,WUHU216HW,2013-05-12 00:41:00,
2013-05-11 20:46:00,67.9,53.9,29.74,North,0,2.0,2.0,61,0.00,,,0.00,WUHU216HW,2013-05-12 00:46:00,
2013-05-11 20:51:00,67.7,53.7,29.73,WNW,293,1.1,2.0,61,0.00,,,0.00,WUHU216HW,2013-05-12 00:51:00,
2013-05-11 20:58:00,67.5,53.6,29.74,NNW,338,0.9,2.7,61,0.00,,,0.00,WUHU216HW,2013-05-12 00:58:00,
2013-05-11 21:03:00,67.3,53.5,29.74,East,90,0.4,2.7,61,0.00,,,0.00,WUHU216HW,2013-05-12 01:03:00,
2013-05-11 21:09:00,67.1,53.6,29.74,NNW,338,0.9,1.1,62,0.00,,,0.00,WUHU216HW,2013-05-12 01:09:00,
2013-05-11 21:14:00,66.8,53.7,29.74,WNW,293,0.4,1.1,63,0.00,,,0.00,WUHU216HW,2013-05-12 01:14:00,
2013-05-11 21:19:00,66.6,53.2,29.74,NNW,338,0.9,0.9,62,0.00,,,0.00,WUHU216HW,2013-05-12 01:19:00,
2013-05-11 21:24:00,66.6,53.2,29.75,NNW,338,0.9,1.1,62,0.00,,,0.00,WUHU216HW,2013-05-12 01:24:00,
2013-05-11 21:29:00,66.4,53.0,29.75,NNW,338,0.4,1.1,62,0.00,,,0.00,WUHU216HW,2013-05-12 01:29:00,
2013-05-11 21:34:00,66.2,52.8,29.75,NNW,338,0.0,1.1,62,0.00,,,0.00,WUHU216HW,2013-05-12 01:34:00,
2013-05-11 21:39:00,66.2,53.3,29.75,SW,225,0.0,0.7,63,0.00,,,0.00,WUHU216HW,2013-05-12 01:39:00,
2013-05-11 21:44:00,66.1,53.5,29.75,SW,225,0.0,0.4,64,0.00,,,0.00,WUHU216HW,2013-05-12 01:44:00,
2013-05-11 21:49:00,65.9,53.4,29.75,SW,225,0.0,0.0,64,0.00,,,0.00,WUHU216HW,2013-05-12 01:49:00,
2013-05-11 21:54:00,65.7,53.6,29.75,SW,225,0.0,0.0,65,0.00,,,0.00,WUHU216HW,2013-05-12 01:54:00,
2013-05-11 21:59:00,65.3,53.3,29.75,WSW,248,0.0,0.0,65,0.00,,,0.00,WUHU216HW,2013-05-12 01:59:00,
2013-05-11 22:04:00,65.0,53.3,29.74,WNW,293,0.0,0.0,66,0.00,,,0.00,WUHU216HW,2013-05-12 02:04:00,
2013-05-11 22:09:00,64.6,53.0,29.75,NW,315,0.2,0.4,66,0.00,,,0.00,WUHU216HW,2013-05-12 02:09:00,
2013-05-11 22:14:00,64.4,53.3,29.75,NW,315,0.0,0.4,67,0.00,,,0.00,WUHU216HW,2013-05-12 02:14:00,
2013-05-11 22:19:00,64.3,53.1,29.75,NW,315,0.0,0.2,67,0.00,,,0.00,WUHU216HW,2013-05-12 02:19:00,
2013-05-11 22:24:00,64.1,53.3,29.75,NW,315,0.0,0.0,68,0.00,,,0.00,WUHU216HW,2013-05-12 02:24:00,
2013-05-11 22:29:00,63.7,53.4,29.75,NW,315,0.0,0.0,69,0.00,,,0.00,WUHU216HW,2013-05-12 02:29:00,
2013-05-11 22:34:00,63.5,53.2,29.75,NW,315,0.0,0.0,69,0.00,,,0.00,WUHU216HW,2013-05-12 02:34:00,
2013-05-11 22:39:00,63.4,53.0,29.75,SSW,203,0.0,0.4,69,0.00,,,0.00,WUHU216HW,2013-05-12 02:39:00,
2013-05-11 22:44:00,63.2,52.8,29.74,NE,45,0.9,0.9,69,0.00,,,0.00,WUHU216HW,2013-05-12 02:44:00,
2013-05-11 22:49:00,62.8,52.9,29.75,East,90,0.0,0.9,70,0.00,,,0.00,WUHU216HW,2013-05-12 02:49:00,
2013-05-11 22:54:00,62.6,52.7,29.75,East,90,0.0,0.7,70,0.00,,,0.00,WUHU216HW,2013-05-12 02:54:00,
2013-05-11 22:59:00,62.3,52.4,29.75,East,90,0.0,0.4,70,0.00,,,0.00,WUHU216HW,2013-05-12 02:59:00,
2013-05-11 23:04:00,61.9,52.5,29.75,East,90,0.0,0.2,71,0.00,,,0.00,WUHU216HW,2013-05-12 03:04:00,
2013-05-11 23:09:00,61.7,51.9,29.76,SSE,158,0.4,1.6,70,0.00,,,0.00,WUHU216HW,2013-05-12 03:09:00,
2013-05-11 23:14:00,61.7,52.3,29.76,SSE,158,0.0,1.6,71,0.00,,,0.00,WUHU216HW,2013-05-12 03:14:00,
2013-05-11 23:19:00,61.6,52.1,29.76,NNE,23,0.7,1.1,71,0.00,,,0.00,WUHU216HW,2013-05-12 03:19:00,
2013-05-11 23:24:00,61.2,52.2,29.76,NE,45,0.0,0.7,72,0.00,,,0.00,WUHU216HW,2013-05-12 03:24:00,
2013-05-11 23:29:00,60.8,51.8,29.76,North,0,0.7,0.7,72,0.00,,,0.00,WUHU216HW,2013-05-12 03:29:00,
2013-05-11 23:34:00,61.2,51.5,29.76,North,0,1.1,1.1,70,0.00,,,0.00,WUHU216HW,2013-05-12 03:34:00,
2013-05-11 23:39:00,61.6,51.4,29.76,North,0,0.9,2.2,69,0.00,,,0.00,WUHU216HW,2013-05-12 03:39:00,
2013-05-11 23:44:00,61.9,51.7,29.76,NNW,338,1.6,3.1,69,0.00,,,0.00,WUHU216HW,2013-05-12 03:44:00,
2013-05-11 23:49:00,61.9,51.7,29.76,North,0,2.5,3.1,69,0.00,,,0.00,WUHU216HW,2013-05-12 03:49:00,
2013-05-11 23:54:00,62.1,51.4,29.77,North,0,1.1,4.0,68,0.00,,,0.00,WUHU216HW,2013-05-12 03:54:00,
2013-05-11 23:59:00,62.1,51.8,29.77,North,0,1.8,4.0,69,0.00,,,0.00,WUHU216HW,2013-05-12 03:59:00,